Regional Weather Roundup
Issued by NWS

Home | Current Version | Previous Version | Graphics & Text | Print | Product List | Glossary On
Versions: 1 2 3 4 5 6 7 8 9 10 11 12 13 14 15 16 17 18 19 20 21 22 23 24 25 26 27 28 29 30 31 32 33 34 35 36 37 38 39 40 41 42 43 44 45 46 47 48 49 50
000
ASUS43 KOAX 270510
RWRNE

WEATHER ROUNDUP FOR NEBRASKA
NATIONAL WEATHER SERVICE OMAHA NE
1200 AM CDT SUN MAY 27 2018

NOTES: SATELLITE DATA IS BEING USED TO AUGMENT CLOUD COVER ABOVE
       12000 FEET.
       "FAIR" INDICATES FEW OR NO CLOUDS BELOW 12,000 FEET WITH NO
       SIGNIFICANT WEATHER AND/OR OBSTRUCTIONS TO VISIBILITY.


NEZ001>004-019>022-054>056-270600-
NEBRASKA PANHANDLE

CITY           SKY/WX    TMP DP  RH WIND       PRES   REMARKS
SCOTTSBLUFF    CLOUDY    77  48  35 E16G24    29.75S
ALLIANCE       CLOUDY    73  48  41 S18       29.78R
CHADRON        CLOUDY    80  47  31 S26G33    29.69S
GORDON         FAIR      72  55  54 S9        29.77S
KIMBALL        CLOUDY    72  42  34 S15       29.83S
SIDNEY         CLOUDY    75  43  31 S23G30    29.81F
$$

NEZ057>060-069>072-079>082-270600-
SOUTHWEST NEBRASKA

CITY           SKY/WX    TMP DP  RH WIND       PRES   REMARKS
NORTH PLATTE   MOCLDY    73  54  51 SE9       29.81S
IMPERIAL       CLOUDY    76  46  34 SE17G24   29.81S
LEXINGTON      PTCLDY    75  58  55 S9        29.83R
MCCOOK         MOCLDY    76  52  43 S15G24    29.80F
OGALLALA       CLOUDY    77  46  32 S16G23    29.79F
$$

NEZ005>010-023>029-035>040-094-270600-
NORTH CENTRAL NEBRASKA

CITY           SKY/WX    TMP DP  RH WIND       PRES   REMARKS
VALENTINE      PTCLDY    80  59  48 S15G25    29.76S
AINSWORTH      CLEAR     76  60  58 S12       29.80R
BROKEN BOW     PTCLDY    73  57  57 SE8       29.81S
O`NEILL        PTCLDY    78  62  57 SE7       29.79S
ORD            CLEAR     71  61  70 SW8       29.79R
THEDFORD       PTCLDY    73  57  56 S10       29.81S
$$

NEZ041-046>049-061>064-073>077-083>087-270600-
SOUTH CENTRAL NEBRASKA

CITY           SKY/WX    TMP DP  RH WIND       PRES   REMARKS
GRAND ISLAND   CLEAR     82  58  43 SW13      29.81R
AURORA         CLEAR     78  57  48 SW10      29.80S
HASTINGS       CLOUDY    80  58  46 S9        29.83S
HEBRON         CLOUDY    80  61  51 SW10      29.81R
HOLDREGE       CLOUDY    74  59  59 S7        29.83S
KEARNEY        CLEAR     78  57  48 S14       29.82S
YORK           CLEAR     77  59  53 S6        29.81R
$$

NEZ011>018-030>034-042>045-270600-
NORTHEAST NEBRASKA

CITY           SKY/WX    TMP DP  RH WIND       PRES   REMARKS
NORFOLK        CLOUDY    75  59  57 SE3       29.77R
ALBION         CLOUDY    72  64  78 CALM      29.80R
BLAIR          CLEAR     82  56  40 CALM      29.79R
COLUMBUS       CLOUDY    77  60  55 CALM      29.78S
FREMONT        PTCLDY    79  61  54 SE3       29.78S
TEKAMAH        CLEAR     76  60  57 CALM      29.76S
WAYNE          CLEAR     69  60  72 CALM      29.78S
$$

NEZ050>053-065>068-078-088>093-270600-
SOUTHEAST NEBRASKA

CITY           SKY/WX    TMP DP  RH WIND       PRES   REMARKS
LINCOLN        CLEAR     80  61  52 SE3       29.78S
OMAHA EPPLEY   CLEAR     75  66  73 CALM      29.77R
BEATRICE       CLEAR     81  64  54 S6        29.80R
FALLS CITY     CLEAR     82  61  48 SW9       29.78S
NEBRASKA CITY  CLEAR     79  58  48 SW5       29.79R
$$

NEZ044-045-051>053-067-270600-
OMAHA AREA

CITY           SKY/WX    TMP DP  RH WIND       PRES   REMARKS
OMAHA EPPLEY   CLEAR     75  66  73 CALM      29.77R
BLAIR          CLEAR     82  56  40 CALM      29.79R
FREMONT        PTCLDY    79  61  54 SE3       29.78S
MILLARD        CLEAR     76  63  63 CALM      29.78R
OFFUTT AFB     CLEAR     69  63  80 CALM      29.76S
WAHOO          FAIR      77  56  47 S7        29.78S
$$




USA.gov is the U.S. government's official web portal to all federal, state and local government web resources and services.